Location: Krakow
(50.0830°N, 19.9170°E)
Time: 07:29:35
(UTC+02:00)

A-11 Canister half - Pass Details

Date: 21 March 2026
Orbit: 1523 x 1684 km, 47.3° (Epoch: 18 April)

Event Time Altitude Azimuth Distance (km) Brightness Sun altitude
Rises 15:08:18 0° 287° (WNW) 4,782 12.2 24.6°
Reaches altitude 10° 15:12:34 10° 272° (W) 3,765 12.1 24.0°
Maximum altitude 15:18:33 19° 232° (SW) 3,072 13.1 23.2°
Drops below altitude 10° 15:24:28 10° 191° (S) 3,694 11.7 22.3°
Sets 15:28:39 0° 175° (S) 4,662 11.8 21.8°
